Regional Weather Roundup
Issued by NWS

Home | Current Version | Previous Version | Text Only | Print | Product List | Glossary Off
Versions: 1 2 3 4 5 6 7 8 9 10 11 12 13 14 15 16 17 18 19 20 21 22 23 24 25 26 27 28 29 30 31 32 33 34 35 36 37 38 39 40 41 42 43 44 45 46 47 48 49 50

000
ASUS43 KTOP 252108
RWRKS

WEATHER ROUNDUP FOR KANSAS
NATIONAL WEATHER SERVICE GOODLAND KS
400 PM CDT WED MAY 25 2016

NOTE:  "FAIR" INDICATES FEW OR NO CLOUDS BELOW 12,000 FEET WITH NO
SIGNIFICANT WEATHER AND/OR OBSTRUCTIONS TO VISIBILITY.

KSZ001>006-013>018-027>032-041>047-252200-
NORTHWEST KANSAS

CITY           SKY/WX    TMP DP  RH WIND       PRES   REMARKS
GOODLAND       SUNNY     75  52  44 S3        29.92F
HAYS           PTSUNNY   70  64  83 N8        29.84F
HILL CITY      CLOUDY    74  61  63 NW5       29.87F
RUSSELL        PTSUNNY   80  69  69 MISG      29.82S
$$

KSZ061>065-074>080-084>089-252200-
SOUTHWEST KANSAS

CITY           SKY/WX    TMP DP  RH WIND       PRES   REMARKS
DODGE CITY     SUNNY     85  58  39 W9        29.86S
ELKHART          N/A     86  31  14 SW13        N/A
GARDEN CITY    SUNNY     82  56  40 NW12      29.87F
GREAT BEND     MOSUNNY   84  66  54 S10       29.80S
LIBERAL        SUNNY     90  37  15 SW14G28   29.88S
PRATT          SUNNY     86  57  37 S13       29.82F
$$

KSZ066>073-081>083-090>101-252200-
SOUTHEAST KANSAS

CITY           SKY/WX    TMP DP  RH WIND       PRES   REMARKS
CHANUTE        CLOUDY    80  69  69 S14       29.88F
COFFEYVILLE    PTSUNNY   82  72  71 S17G24    29.87F
HUTCHINSON     SUNNY     89  67  47 S16       29.80F
MEDICINE LODGE   N/A     93  50  23 SW10      29.79F
NEWTON         MOSUNNY   82  72  69 SE13        N/A
PARSONS        PTSUNNY   82  71  69 S16G23    29.89F
WICHITA INTL   MOSUNNY   88  72  58 S15       29.80F
WICHITA JABRA  MOSUNNY   86  75  69 S17G23    29.81F HX  95
WICHITA MCCONL MOSUNNY   87  74  65 S18G25    29.81F HX  95
WINFIELD       SUNNY     87  73  62 S18G26    29.83F
$$

KSZ007>012-019>026-033>040-048>060-102>105-252200-
NORTHEAST KANSAS

CITY           SKY/WX    TMP DP  RH WIND       PRES   REMARKS
CONCORDIA      MOSUNNY   77  68  73 CALM      29.83F
EMPORIA        CLOUDY    79  69  71 SE16      29.86F
LAWRENCE       MOSUNNY   80  66  62 S15G21    29.86F
MANHATTAN      PTSUNNY   82  69  64 S15       29.82F
MARYSVILLE     CLOUDY    73  68  83 SE7       29.85F
OLATHE IND     SUNNY     81  64  56 S16G24    29.89F
OLATHE EXE     SUNNY     80  64  58 S10G22    29.88F
SALINA         MOSUNNY   85  72  65 S10       29.80F
TOPEKA BILLARD PTSUNNY   82  66  58 S16G26    29.85F
TOPEKA FORBES  MOSUNNY   83  68  60 S17G24    29.85F
$$



USA.gov is the U.S. government's official web portal to all federal, state and local government web resources and services.